Powrót do katalogu

USA 173 DEB

AktywnyLEO
NORAD 28097·DEBRIS·🇺🇸 United States

Wystrzelony Dec 2, 2003 z Vandenberg Space Force Base

Loading…

Następne Przeloty (najbliższe 24 godziny)

TLE

Starzejące sięSource: Mike McCants

Epoka: Sep 10, 2026, 01:44 UTC

1 28097U 03054C   26253.07289672 0.00000060  00000-0  36307-4 0    09
2 28097  63.3830 328.8604 0603047   8.1256 351.8744 13.41321231    07

Śledź USA 173 DEB w czasie rzeczywistym z AllMySat

Download on the App Store